Tracking 30970 objects as of 3-Jul-2025
HD Live streaming from Space Station
objects crossing your sky now

STARLINK-31668

Track STARLINK-31668 now!
10-day predictions
STARLINK-31668 is classified as:


NORAD ID: 59580
Int'l Code: 2024-076S
Perigee: 489.2 km
Apogee: 491.3 km
Inclination: 43.0 °
Period: 94.3 minutes
Semi major axis: 6861 km
RCS: Unknown
Launch date: April 23, 2024
Source: United States (US)
Launch site: AIR FORCE EASTERN TEST RANGE (AFETR)
Your satellite tracking list
Your tracking list is empty




NASA's NSSDC Master Catalog

Two Line Element Set (TLE):
1 59580U 24076S   25183.75401182 -.00001158  00000-0 -32579-4 0  9990
2 59580  43.0020 340.0386 0001530 237.5937 122.4766 15.27570371 68287
Source of the keplerian elements: AFSPC